Voltar ao catálogo

COSMOS 2251 DEB

AtivoLEO
NORAD 33995·DEBRIS·🇷🇺 Russia

Lançado Jun 16, 1993 de Plesetsk Cosmodrome

Loading…

Próximas Passagens (próximas 24 horas)

TLE

AtualizadoSource: Space-Track

Época: Sep 13, 2026, 14:43 UTC

1 33995U 93036GE  26256.61365386  .00001296  00000-0  44664-3 0  9994
2 33995  74.0620 335.9415 0061688 282.3799  77.0454 14.35874807914636

Acompanhe COSMOS 2251 DEB em tempo real com AllMySat

Download on the App Store